Time,TemperatureF,DewpointF,PressureIn,WindDirection,WindDirectionDegrees,WindSpeedMPH,WindSpeedGustMPH,Humidity,HourlyPrecipIn,Conditions,Clouds,dailyrainin,SoftwareType,DateUTC
2013-05-17 00:00:00,72.7,62.3,29.96,SW,227,0.0,0.0,70,0.00,CLR,,0.00,WeatherDisplay:10.37,2013-05-17 04:00:00,
2013-05-17 00:01:00,72.6,62.3,29.96,SW,227,0.0,0.0,70,0.00,CLR,,0.00,WeatherDisplay:10.37,2013-05-17 04:01:00,
2013-05-17 00:06:00,72.6,62.3,29.96,SW,227,0.0,0.0,70,0.00,CLR,,0.00,WeatherDisplay:10.37,2013-05-17 04:06:00,
2013-05-17 00:11:00,72.5,62.6,29.96,SW,226,0.0,0.0,71,0.00,CLR,,0.00,WeatherDisplay:10.37,2013-05-17 04:11:00,
2013-05-17 00:16:00,72.4,62.5,29.96,SW,226,0.0,0.0,71,0.00,CLR,,0.00,WeatherDisplay:10.37,2013-05-17 04:16:00,
2013-05-17 00:21:00,72.4,62.5,29.96,SW,226,0.0,0.0,71,0.00,CLR,,0.00,WeatherDisplay:10.37,2013-05-17 04:21:00,
2013-05-17 00:26:00,72.4,62.5,29.96,WSW,243,0.0,0.0,71,0.00,CLR,,0.00,WeatherDisplay:10.37,2013-05-17 04:26:00,
2013-05-17 00:31:00,72.5,62.6,29.96,West,269,1.1,1.1,71,0.00,CLR,,0.00,WeatherDisplay:10.37,2013-05-17 04:31:00,
2013-05-17 00:36:00,72.5,62.6,29.96,West,271,0.0,0.0,71,0.00,CLR,,0.00,WeatherDisplay:10.37,2013-05-17 04:36:00,
2013-05-17 00:41:00,72.5,62.6,29.96,WNW,294,1.1,1.1,71,0.00,CLR,,0.00,WeatherDisplay:10.37,2013-05-17 04:41:00,
2013-05-17 00:46:00,72.4,62.5,29.96,WNW,291,0.0,0.0,71,0.00,CLR,,0.00,WeatherDisplay:10.37,2013-05-17 04:46:00,
2013-05-17 00:51:00,72.3,62.8,29.96,WNW,291,0.0,0.0,72,0.00,CLR,,0.00,WeatherDisplay:10.37,2013-05-17 04:51:00,
2013-05-17 00:56:00,72.2,62.7,29.97,WNW,291,0.0,0.0,72,0.00,CLR,,0.00,WeatherDisplay:10.37,2013-05-17 04:56:00,
2013-05-17 01:01:00,72.1,62.6,29.97,WNW,290,0.0,0.0,72,0.00,CLR,,0.00,WeatherDisplay:10.37,2013-05-17 05:01:00,
2013-05-17 01:06:00,71.9,62.8,29.96,WNW,291,0.0,0.0,73,0.00,CLR,,0.00,WeatherDisplay:10.37,2013-05-17 05:06:00,
2013-05-17 01:11:00,71.7,62.6,29.97,WNW,290,0.0,0.0,73,0.00,CLR,,0.00,WeatherDisplay:10.37,2013-05-17 05:11:00,
2013-05-17 01:16:00,71.5,62.8,29.97,WNW,285,0.0,0.0,74,0.00,CLR,,0.00,WeatherDisplay:10.37,2013-05-17 05:16:00,
2013-05-17 01:21:00,71.4,62.7,29.97,WNW,283,0.0,0.0,74,0.00,CLR,,0.00,WeatherDisplay:10.37,2013-05-17 05:21:00,
2013-05-17 01:26:00,71.4,62.7,29.96,West,281,1.1,1.1,74,0.00,CLR,,0.00,WeatherDisplay:10.37,2013-05-17 05:26:00,
2013-05-17 01:31:00,71.4,62.7,29.96,WNW,284,1.0,1.0,74,0.00,CLR,,0.00,WeatherDisplay:10.37,2013-05-17 05:31:00,
2013-05-17 01:36:00,71.3,63.0,29.96,West,280,0.0,0.0,75,0.00,CLR,,0.00,WeatherDisplay:10.37,2013-05-17 05:36:00,
2013-05-17 01:41:00,71.2,62.9,29.96,West,278,0.0,0.0,75,0.00,CLR,,0.00,WeatherDisplay:10.37,2013-05-17 05:41:00,
2013-05-17 01:46:00,71.0,62.7,29.96,West,278,1.1,0.0,75,0.00,CLR,,0.00,WeatherDisplay:10.37,2013-05-17 05:46:00,
2013-05-17 01:51:00,70.8,62.9,29.96,West,278,0.0,0.0,76,0.00,CLR,,0.00,WeatherDisplay:10.37,2013-05-17 05:51:00,
2013-05-17 01:56:00,70.6,62.7,29.96,West,278,0.0,0.0,76,0.00,CLR,,0.00,WeatherDisplay:10.37,2013-05-17 05:56:00,
2013-05-17 02:01:00,70.4,62.8,29.97,West,278,0.0,0.0,77,0.00,CLR,,0.00,WeatherDisplay:10.37,2013-05-17 06:01:00,
2013-05-17 02:06:00,70.2,62.6,29.97,West,281,1.1,1.1,77,0.00,CLR,,0.00,WeatherDisplay:10.37,2013-05-17 06:06:00,
2013-05-17 02:11:00,70.1,62.9,29.97,West,281,0.0,0.1,78,0.00,CLR,,0.00,WeatherDisplay:10.37,2013-05-17 06:11:00,
2013-05-17 02:16:00,69.8,62.6,29.97,WNW,283,0.0,0.0,78,0.00,CLR,,0.00,WeatherDisplay:10.37,2013-05-17 06:16:00,
2013-05-17 02:21:00,69.7,62.5,29.97,WNW,282,0.0,0.0,78,0.00,CLR,,0.00,WeatherDisplay:10.37,2013-05-17 06:21:00,
2013-05-17 02:26:00,69.4,62.2,29.97,WNW,283,0.0,0.0,78,0.00,CLR,,0.00,WeatherDisplay:10.37,2013-05-17 06:26:00,
2013-05-17 02:31:00,69.1,62.7,29.97,WNW,282,0.0,0.0,80,0.00,CLR,,0.00,WeatherDisplay:10.37,2013-05-17 06:31:00,
2013-05-17 02:36:00,68.9,62.5,29.97,West,281,0.0,0.0,80,0.00,CLR,,0.00,WeatherDisplay:10.37,2013-05-17 06:36:00,
2013-05-17 02:41:00,68.6,62.5,29.97,West,281,0.0,0.0,81,0.00,CLR,,0.00,WeatherDisplay:10.37,2013-05-17 06:41:00,
2013-05-17 02:46:00,68.4,62.3,29.97,West,281,0.0,0.0,81,0.00,CLR,,0.00,WeatherDisplay:10.37,2013-05-17 06:46:00,
2013-05-17 02:51:00,68.1,62.4,29.97,West,281,0.0,0.0,82,0.00,CLR,,0.00,WeatherDisplay:10.37,2013-05-17 06:51:00,
2013-05-17 02:56:00,67.8,62.4,29.97,WNW,282,0.0,0.0,83,0.00,CLR,,0.00,WeatherDisplay:10.37,2013-05-17 06:56:00,
2013-05-17 03:01:00,67.5,62.2,29.97,WNW,287,0.0,0.0,83,0.00,CLR,,0.00,WeatherDisplay:10.37,2013-05-17 07:01:00,
2013-05-17 03:06:00,67.3,62.3,29.97,WNW,285,0.0,0.0,84,0.00,CLR,,0.00,WeatherDisplay:10.37,2013-05-17 07:06:00,
2013-05-17 03:11:00,67.0,62.0,29.97,WNW,285,0.0,0.0,84,0.00,CLR,,0.00,WeatherDisplay:10.37,2013-05-17 07:11:00,
2013-05-17 03:16:00,66.7,62.0,29.97,WNW,285,0.0,0.0,85,0.00,CLR,,0.00,WeatherDisplay:10.37,2013-05-17 07:16:00,
2013-05-17 03:21:00,66.5,62.2,29.97,WNW,285,0.0,0.0,86,0.00,CLR,,0.00,WeatherDisplay:10.37,2013-05-17 07:21:00,
2013-05-17 03:26:00,66.2,61.9,29.97,WNW,287,0.0,0.0,86,0.00,CLR,,0.00,WeatherDisplay:10.37,2013-05-17 07:26:00,
2013-05-17 03:31:00,65.9,61.9,29.97,WNW,287,0.0,0.0,87,0.00,CLR,,0.00,WeatherDisplay:10.37,2013-05-17 07:31:00,
2013-05-17 03:36:00,65.6,61.9,29.97,WNW,287,0.0,0.0,88,0.00,CLR,,0.00,WeatherDisplay:10.37,2013-05-17 07:36:00,
2013-05-17 03:41:00,65.4,61.8,29.97,WNW,285,0.0,0.0,88,0.00,CLR,,0.00,WeatherDisplay:10.37,2013-05-17 07:41:00,
2013-05-17 03:46:00,65.1,61.5,29.98,WNW,285,0.0,0.0,88,0.00,CLR,,0.00,WeatherDisplay:10.37,2013-05-17 07:46:00,
2013-05-17 03:51:00,64.9,61.6,29.98,WNW,285,0.0,0.0,89,0.00,CLR,,0.00,WeatherDisplay:10.37,2013-05-17 07:51:00,
2013-05-17 03:56:00,64.7,61.4,29.98,WNW,285,0.0,0.0,89,0.00,CLR,,0.00,WeatherDisplay:10.37,2013-05-17 07:56:00,
2013-05-17 04:01:00,64.5,61.5,29.98,WNW,285,0.0,0.0,90,0.00,CLR,,0.00,WeatherDisplay:10.37,2013-05-17 08:01:00,
2013-05-17 04:06:00,64.3,61.3,29.98,WNW,285,0.0,0.0,90,0.00,CLR,,0.00,WeatherDisplay:10.37,2013-05-17 08:06:00,
2013-05-17 04:12:00,64.1,61.1,29.98,WNW,285,0.0,0.0,90,0.00,CLR,,0.00,WeatherDisplay:10.37,2013-05-17 08:12:00,
2013-05-17 04:17:00,63.8,61.1,29.98,WNW,285,0.0,0.0,91,0.00,CLR,,0.00,WeatherDisplay:10.37,2013-05-17 08:17:00,
2013-05-17 04:22:00,63.6,60.9,29.98,WNW,285,0.0,0.0,91,0.00,CLR,,0.00,WeatherDisplay:10.37,2013-05-17 08:22:00,
2013-05-17 04:27:00,63.5,61.1,29.98,WNW,285,0.0,0.0,92,0.00,CLR,,0.00,WeatherDisplay:10.37,2013-05-17 08:27:00,
2013-05-17 04:32:00,63.3,60.9,29.99,WNW,285,0.0,0.0,92,0.00,CLR,,0.00,WeatherDisplay:10.37,2013-05-17 08:32:00,
2013-05-17 04:37:00,63.2,60.8,29.99,WNW,285,0.0,0.0,92,0.00,CLR,,0.00,WeatherDisplay:10.37,2013-05-17 08:37:00,
2013-05-17 04:42:00,63.0,60.6,29.99,WNW,285,0.0,0.0,92,0.00,CLR,,0.00,WeatherDisplay:10.37,2013-05-17 08:42:00,
2013-05-17 04:47:00,62.8,60.7,29.99,WNW,285,0.0,0.0,93,0.00,CLR,,0.00,WeatherDisplay:10.37,2013-05-17 08:47:00,
2013-05-17 04:52:00,62.7,60.6,29.99,WNW,285,0.0,0.0,93,0.00,CLR,,0.00,WeatherDisplay:10.37,2013-05-17 08:52:00,
2013-05-17 04:57:00,62.5,60.4,29.99,WNW,285,0.0,0.0,93,0.00,CLR,,0.00,WeatherDisplay:10.37,2013-05-17 08:57:00,
2013-05-17 05:02:00,62.3,60.2,30.00,WNW,285,0.0,0.0,93,0.00,CLR,,0.00,WeatherDisplay:10.37,2013-05-17 09:02:00,
2013-05-17 05:07:00,62.3,60.6,30.00,WNW,285,0.0,0.0,94,0.00,CLR,,0.00,WeatherDisplay:10.37,2013-05-17 09:07:00,
2013-05-17 05:12:00,62.1,60.4,30.00,WNW,285,0.0,0.0,94,0.00,CLR,,0.00,WeatherDisplay:10.37,2013-05-17 09:12:00,
2013-05-17 05:17:00,61.9,60.2,30.00,WNW,285,0.0,0.0,94,0.00,CLR,,0.00,WeatherDisplay:10.37,2013-05-17 09:17:00,
2013-05-17 05:22:00,61.9,60.5,30.00,WNW,285,0.0,0.0,95,0.00,CLR,,0.00,WeatherDisplay:10.37,2013-05-17 09:22:00,
2013-05-17 05:27:00,61.9,60.5,30.01,WNW,285,0.0,0.0,95,0.00,CLR,,0.00,WeatherDisplay:10.37,2013-05-17 09:27:00,
2013-05-17 05:32:00,61.8,60.4,30.01,WNW,285,0.0,0.0,95,0.00,CLR,,0.00,WeatherDisplay:10.37,2013-05-17 09:32:00,
2013-05-17 05:37:00,61.6,59.9,30.01,WNW,285,0.0,0.0,94,0.00,CLR,,0.00,WeatherDisplay:10.37,2013-05-17 09:37:00,
2013-05-17 05:42:00,61.6,60.2,30.01,WNW,285,0.0,0.0,95,0.00,CLR,,0.00,WeatherDisplay:10.37,2013-05-17 09:42:00,
2013-05-17 05:47:00,61.6,60.2,30.01,WNW,285,0.0,0.0,95,0.00,CLR,,0.00,WeatherDisplay:10.37,2013-05-17 09:47:00,
2013-05-17 05:52:00,61.6,60.2,30.01,WNW,285,0.0,0.0,95,0.00,CLR,,0.00,WeatherDisplay:10.37,2013-05-17 09:52:00,
2013-05-17 05:57:00,61.4,60.0,30.02,WNW,285,0.0,0.0,95,0.00,CLR,,0.00,WeatherDisplay:10.37,2013-05-17 09:57:00,
2013-05-17 06:02:00,61.3,59.9,30.02,WNW,285,0.0,0.0,95,0.00,CLR,,0.00,WeatherDisplay:10.37,2013-05-17 10:02:00,
2013-05-17 06:07:00,61.3,59.9,30.02,WNW,285,0.0,0.0,95,0.00,CLR,,0.00,WeatherDisplay:10.37,2013-05-17 10:07:00,
2013-05-17 06:12:00,61.6,60.4,30.03,WNW,285,0.0,0.0,96,0.00,CLR,,0.00,WeatherDisplay:10.37,2013-05-17 10:12:00,
2013-05-17 06:17:00,61.7,60.5,30.03,WNW,285,0.0,0.0,96,0.00,CLR,,0.00,WeatherDisplay:10.37,2013-05-17 10:17:00,
2013-05-17 06:22:00,61.8,60.6,30.03,WNW,285,0.0,0.0,96,0.00,CLR,,0.00,WeatherDisplay:10.37,2013-05-17 10:22:00,
2013-05-17 06:27:00,61.8,60.6,30.03,WNW,285,0.0,0.0,96,0.00,CLR,,0.00,WeatherDisplay:10.37,2013-05-17 10:27:00,
2013-05-17 06:32:00,62.0,60.8,30.03,WNW,285,0.0,0.0,96,0.00,CLR,,0.00,WeatherDisplay:10.37,2013-05-17 10:32:00,
2013-05-17 06:37:00,62.1,60.9,30.03,WNW,285,0.0,0.0,96,0.00,CLR,,0.00,WeatherDisplay:10.37,2013-05-17 10:37:00,
2013-05-17 06:42:00,62.1,60.9,30.03,WNW,285,0.0,0.0,96,0.00,CLR,,0.00,WeatherDisplay:10.37,2013-05-17 10:42:00,
2013-05-17 06:47:00,62.2,61.0,30.03,WNW,285,0.0,0.0,96,0.00,CLR,,0.00,WeatherDisplay:10.37,2013-05-17 10:47:00,
2013-05-17 06:52:00,62.4,61.2,30.03,WNW,285,0.0,0.0,96,0.00,CLR,,0.00,WeatherDisplay:10.37,2013-05-17 10:52:00,
2013-05-17 06:57:00,62.5,61.3,30.03,WNW,285,0.0,0.0,96,0.00,CLR,,0.00,WeatherDisplay:10.37,2013-05-17 10:57:00,
2013-05-17 07:02:00,62.6,61.4,30.03,WNW,285,0.0,0.0,96,0.00,CLR,,0.00,WeatherDisplay:10.37,2013-05-17 11:02:00,
2013-05-17 07:07:00,62.6,61.4,30.03,WNW,285,0.0,0.0,96,0.00,CLR,,0.00,WeatherDisplay:10.37,2013-05-17 11:07:00,
2013-05-17 07:12:00,62.7,61.5,30.04,WNW,285,0.0,0.0,96,0.00,CLR,,0.00,WeatherDisplay:10.37,2013-05-17 11:12:00,
2013-05-17 07:17:00,62.8,61.6,30.04,WNW,285,0.0,0.0,96,0.00,CLR,,0.00,WeatherDisplay:10.37,2013-05-17 11:17:00,
2013-05-17 07:22:00,62.9,61.7,30.04,WNW,285,0.0,0.0,96,0.00,CLR,,0.00,WeatherDisplay:10.37,2013-05-17 11:22:00,
2013-05-17 07:27:00,63.0,61.8,30.04,WNW,285,0.0,0.0,96,0.00,CLR,,0.00,WeatherDisplay:10.37,2013-05-17 11:27:00,
2013-05-17 07:32:00,63.2,62.0,30.04,WNW,285,0.0,0.0,96,0.00,CLR,,0.00,WeatherDisplay:10.37,2013-05-17 11:32:00,
2013-05-17 07:37:00,63.4,62.2,30.05,WNW,285,0.0,0.0,96,0.00,CLR,,0.00,WeatherDisplay:10.37,2013-05-17 11:37:00,
2013-05-17 07:42:00,63.7,62.5,30.05,WNW,285,0.0,0.0,96,0.00,CLR,,0.00,WeatherDisplay:10.37,2013-05-17 11:42:00,
2013-05-17 07:47:00,63.9,62.7,30.05,WNW,285,0.0,0.0,96,0.00,CLR,,0.00,WeatherDisplay:10.37,2013-05-17 11:47:00,
2013-05-17 07:52:00,64.2,63.0,30.05,WNW,285,0.0,0.0,96,0.00,CLR,,0.00,WeatherDisplay:10.37,2013-05-17 11:52:00,
2013-05-17 07:57:00,64.5,63.3,30.05,WNW,285,0.0,0.0,96,0.00,CLR,,0.00,WeatherDisplay:10.37,2013-05-17 11:57:00,
2013-05-17 08:02:00,64.9,63.7,30.05,WNW,285,0.0,0.0,96,0.00,CLR,,0.00,WeatherDisplay:10.37,2013-05-17 12:02:00,
2013-05-17 08:07:00,65.3,63.8,30.05,WNW,285,0.0,0.0,95,0.00,CLR,,0.00,WeatherDisplay:10.37,2013-05-17 12:07:00,
2013-05-17 08:12:00,65.7,64.2,30.05,WNW,285,0.0,0.0,95,0.00,CLR,,0.00,WeatherDisplay:10.37,2013-05-17 12:12:00,
2013-05-17 08:17:00,66.3,64.8,30.05,WNW,285,0.0,0.0,95,0.00,CLR,,0.00,WeatherDisplay:10.37,2013-05-17 12:17:00,
2013-05-17 08:22:00,66.9,65.1,30.06,WNW,285,0.0,0.0,94,0.00,CLR,,0.00,WeatherDisplay:10.37,2013-05-17 12:22:00,
2013-05-17 08:27:00,67.6,65.5,30.05,WNW,285,0.0,0.0,93,0.00,CLR,,0.00,WeatherDisplay:10.37,2013-05-17 12:27:00,
2013-05-17 08:32:00,68.3,65.6,30.06,WNW,285,0.0,0.0,91,0.00,CLR,,0.00,WeatherDisplay:10.37,2013-05-17 12:32:00,
2013-05-17 08:37:00,69.3,65.9,30.06,WNW,285,0.0,0.0,89,0.00,CLR,,0.00,WeatherDisplay:10.37,2013-05-17 12:37:00,
2013-05-17 08:42:00,70.3,65.9,30.06,WNW,285,0.0,0.0,86,0.00,CLR,,0.00,WeatherDisplay:10.37,2013-05-17 12:42:00,
2013-05-17 08:47:00,71.3,66.6,30.06,West,274,0.0,0.0,85,0.00,CLR,,0.00,WeatherDisplay:10.37,2013-05-17 12:47:00,
2013-05-17 08:52:00,72.2,66.7,30.06,SSE,150,0.0,0.0,83,0.00,CLR,,0.00,WeatherDisplay:10.37,2013-05-17 12:52:00,
2013-05-17 08:57:00,72.9,67.1,30.06,SE,146,0.0,0.0,82,0.00,CLR,,0.00,WeatherDisplay:10.37,2013-05-17 12:57:00,
2013-05-17 09:02:00,74.2,67.3,30.06,SE,143,0.0,0.0,79,0.00,CLR,,0.00,WeatherDisplay:10.37,2013-05-17 13:02:00,
2013-05-17 09:07:00,75.4,67.3,30.06,SE,142,0.0,0.0,76,0.00,CLR,,0.00,WeatherDisplay:10.37,2013-05-17 13:07:00,
2013-05-17 09:12:00,76.5,67.6,30.06,SE,141,0.0,0.0,74,0.00,CLR,,0.00,WeatherDisplay:10.37,2013-05-17 13:12:00,
2013-05-17 09:17:00,77.4,67.7,30.06,SE,141,0.0,0.0,72,0.00,CLR,,0.00,WeatherDisplay:10.37,2013-05-17 13:17:00,
2013-05-17 09:22:00,78.1,67.1,30.06,SE,141,0.0,0.0,69,0.00,CLR,,0.00,WeatherDisplay:10.37,2013-05-17 13:22:00,
2013-05-17 09:27:00,78.7,67.2,30.06,ESE,117,1.1,1.1,68,0.00,CLR,,0.00,WeatherDisplay:10.37,2013-05-17 13:27:00,
2013-05-17 09:32:00,78.9,66.1,30.06,NE,46,1.1,0.0,65,0.00,CLR,,0.00,WeatherDisplay:10.37,2013-05-17 13:32:00,
2013-05-17 09:37:00,79.4,67.5,30.06,ESE,103,0.0,0.0,67,0.00,CLR,,0.00,WeatherDisplay:10.37,2013-05-17 13:37:00,
2013-05-17 09:42:00,80.0,65.8,30.06,ESE,105,2.3,2.3,62,0.00,CLR,,0.00,WeatherDisplay:10.37,2013-05-17 13:42:00,
2013-05-17 09:47:00,80.0,64.9,30.06,NNW,347,1.1,1.1,60,0.00,CLR,,0.00,WeatherDisplay:10.37,2013-05-17 13:47:00,
2013-05-17 09:52:00,80.1,64.5,30.06,NNE,13,2.3,2.3,59,0.00,CLR,,0.00,WeatherDisplay:10.37,2013-05-17 13:52:00,
2013-05-17 09:57:00,79.8,64.7,30.06,WSW,250,1.1,1.1,60,0.00,CLR,,0.00,WeatherDisplay:10.37,2013-05-17 13:57:00,
2013-05-17 10:02:00,79.8,64.7,30.06,WNW,293,0.0,0.0,60,0.00,CLR,,0.00,WeatherDisplay:10.37,2013-05-17 14:02:00,
2013-05-17 10:07:00,79.9,63.3,30.06,WSW,255,0.0,0.0,57,0.00,CLR,,0.00,WeatherDisplay:10.37,2013-05-17 14:07:00,
2013-05-17 10:13:00,80.3,63.7,30.06,East,94,2.3,2.3,57,0.00,CLR,,0.00,WeatherDisplay:10.37,2013-05-17 14:13:00,
2013-05-17 10:18:00,80.2,64.1,30.06,SW,215,2.3,2.3,58,0.00,CLR,,0.00,WeatherDisplay:10.37,2013-05-17 14:18:00,
2013-05-17 10:23:00,80.7,64.5,30.06,North,1,2.3,2.3,58,0.00,CLR,,0.00,WeatherDisplay:10.37,2013-05-17 14:23:00,
2013-05-17 10:28:00,81.3,64.6,30.06,SE,127,2.3,2.3,57,0.00,CLR,,0.00,WeatherDisplay:10.37,2013-05-17 14:28:00,
2013-05-17 10:33:00,81.8,64.1,30.06,SSE,147,3.5,3.5,55,0.00,CLR,,0.00,WeatherDisplay:10.37,2013-05-17 14:33:00,
2013-05-17 10:38:00,81.9,63.6,30.07,ENE,72,1.1,1.1,54,0.00,CLR,,0.00,WeatherDisplay:10.37,2013-05-17 14:38:00,
2013-05-17 10:43:00,82.0,62.6,30.07,NNE,15,3.5,3.5,52,0.00,CLR,,0.00,WeatherDisplay:10.37,2013-05-17 14:43:00,
2013-05-17 10:48:00,82.0,62.6,30.07,West,267,1.1,0.0,52,0.00,CLR,,0.00,WeatherDisplay:10.37,2013-05-17 14:48:00,
2013-05-17 10:53:00,82.8,64.5,30.07,SE,130,0.0,0.0,54,0.00,CLR,,0.00,WeatherDisplay:10.37,2013-05-17 14:53:00,
2013-05-17 10:58:00,83.7,63.1,30.07,ESE,110,1.1,1.1,50,0.00,CLR,,0.00,WeatherDisplay:10.37,2013-05-17 14:58:00,
2013-05-17 11:03:00,84.0,62.8,30.07,ESE,113,3.5,3.5,49,0.00,CLR,,0.00,WeatherDisplay:10.37,2013-05-17 15:03:00,
2013-05-17 11:08:00,83.9,62.7,30.07,NE,53,2.3,2.3,49,0.00,CLR,,0.00,WeatherDisplay:10.37,2013-05-17 15:08:00,
2013-05-17 11:13:00,84.0,62.8,30.07,SE,138,3.5,3.5,49,0.00,CLR,,0.00,WeatherDisplay:10.37,2013-05-17 15:13:00,
2013-05-17 11:18:00,84.3,64.2,30.07,SE,145,1.1,1.1,51,0.00,CLR,,0.00,WeatherDisplay:10.37,2013-05-17 15:18:00,
2013-05-17 11:23:00,85.0,61.9,30.07,ESE,113,6.0,6.0,46,0.00,CLR,,0.00,WeatherDisplay:10.37,2013-05-17 15:23:00,
2013-05-17 11:28:00,84.3,60.6,30.07,North,354,3.5,3.5,45,0.00,CLR,,0.00,WeatherDisplay:10.37,2013-05-17 15:28:00,
2013-05-17 11:33:00,84.2,62.4,30.06,ESE,105,4.0,4.0,48,0.00,CLR,,0.00,WeatherDisplay:10.37,2013-05-17 15:33:00,
2013-05-17 11:38:00,84.8,62.3,30.06,SE,125,1.1,1.1,47,0.00,CLR,,0.00,WeatherDisplay:10.37,2013-05-17 15:38:00,
2013-05-17 11:43:00,85.3,62.8,30.06,East,91,1.1,1.1,47,0.00,CLR,,0.00,WeatherDisplay:10.37,2013-05-17 15:43:00,
2013-05-17 11:48:00,85.3,60.9,30.06,NNE,23,2.3,2.3,44,0.00,CLR,,0.00,WeatherDisplay:10.37,2013-05-17 15:48:00,
2013-05-17 11:53:00,85.6,62.4,30.06,NNE,15,2.3,2.3,46,0.00,CLR,,0.00,WeatherDisplay:10.37,2013-05-17 15:53:00,
2013-05-17 11:58:00,86.2,61.1,30.06,SE,142,2.3,2.3,43,0.00,CLR,,0.00,WeatherDisplay:10.37,2013-05-17 15:58:00,
2013-05-17 12:03:00,86.6,62.1,30.06,North,357,3.5,3.5,44,0.00,CLR,,0.00,WeatherDisplay:10.37,2013-05-17 16:03:00,
2013-05-17 12:08:00,86.6,61.4,30.06,ESE,117,3.5,3.5,43,0.00,CLR,,0.00,WeatherDisplay:10.37,2013-05-17 16:08:00,
2013-05-17 12:13:00,86.4,61.9,30.06,NNW,338,2.3,2.3,44,0.00,CLR,,0.00,WeatherDisplay:10.37,2013-05-17 16:13:00,
2013-05-17 12:18:00,86.5,62.6,30.06,SSE,149,4.6,4.6,45,0.00,CLR,,0.00,WeatherDisplay:10.37,2013-05-17 16:18:00,
2013-05-17 12:23:00,86.3,61.2,30.06,East,79,4.6,4.6,43,0.00,CLR,,0.00,WeatherDisplay:10.37,2013-05-17 16:23:00,
2013-05-17 12:28:00,86.0,62.2,30.06,East,83,1.1,1.1,45,0.00,CLR,,0.00,WeatherDisplay:10.37,2013-05-17 16:28:00,
2013-05-17 12:33:00,86.7,62.2,30.06,ESE,117,3.5,3.5,44,0.00,CLR,,0.00,WeatherDisplay:10.37,2013-05-17 16:33:00,
2013-05-17 12:38:00,87.3,62.1,30.06,SW,227,5.0,5.0,43,0.00,CLR,,0.00,WeatherDisplay:10.37,2013-05-17 16:38:00,
2013-05-17 12:43:00,86.6,60.8,30.06,SW,236,1.1,1.1,42,0.00,CLR,,0.00,WeatherDisplay:10.37,2013-05-17 16:43:00,
2013-05-17 12:48:00,87.5,62.2,30.06,NNE,20,2.3,2.3,43,0.00,CLR,,0.00,WeatherDisplay:10.37,2013-05-17 16:48:00,
2013-05-17 12:53:00,88.0,61.3,30.06,SSE,153,1.1,1.1,41,0.00,CLR,,0.00,WeatherDisplay:10.37,2013-05-17 16:53:00,
2013-05-17 12:58:00,87.9,61.3,30.06,ENE,70,3.5,3.5,41,0.00,CLR,,0.00,WeatherDisplay:10.37,2013-05-17 16:58:00,
2013-05-17 13:03:00,87.8,61.2,30.06,SE,124,3.5,3.5,41,0.00,CLR,,0.00,WeatherDisplay:10.37,2013-05-17 17:03:00,
2013-05-17 13:08:00,87.3,60.7,30.06,East,98,3.5,3.5,41,0.00,CLR,,0.00,WeatherDisplay:10.37,2013-05-17 17:08:00,
2013-05-17 13:13:00,87.6,61.7,30.05,East,87,1.1,1.1,42,0.00,CLR,,0.00,WeatherDisplay:10.37,2013-05-17 17:13:00,
2013-05-17 13:18:00,87.9,61.3,30.05,West,264,1.1,1.1,41,0.00,CLR,,0.00,WeatherDisplay:10.37,2013-05-17 17:18:00,
2013-05-17 13:23:00,88.6,61.9,30.05,SW,234,1.1,1.1,41,0.00,CLR,,0.00,WeatherDisplay:10.37,2013-05-17 17:23:00,
2013-05-17 13:28:00,88.3,60.9,30.05,NNE,30,2.3,2.3,40,0.00,CLR,,0.00,WeatherDisplay:10.37,2013-05-17 17:28:00,
2013-05-17 13:33:00,89.2,63.1,30.05,NE,56,2.3,2.3,42,0.00,CLR,,0.00,WeatherDisplay:10.37,2013-05-17 17:33:00,
2013-05-17 13:38:00,89.4,61.2,30.05,ESE,109,3.5,3.5,39,0.00,CLR,,0.00,WeatherDisplay:10.37,2013-05-17 17:38:00,
2013-05-17 13:43:00,88.6,61.2,30.05,North,4,2.3,2.3,40,0.00,CLR,,0.00,WeatherDisplay:10.37,2013-05-17 17:43:00,
2013-05-17 13:48:00,87.5,60.9,30.05,West,269,1.1,1.1,41,0.00,CLR,,0.00,WeatherDisplay:10.37,2013-05-17 17:48:00,
2013-05-17 13:53:00,87.1,61.2,30.05,East,86,2.3,2.3,42,0.00,CLR,,0.00,WeatherDisplay:10.37,2013-05-17 17:53:00,
2013-05-17 13:58:00,87.0,62.5,30.05,East,101,0.0,0.0,44,0.00,CLR,,0.00,WeatherDisplay:10.37,2013-05-17 17:58:00,
2013-05-17 14:03:00,87.5,61.6,30.05,SE,129,4.6,4.6,42,0.00,CLR,,0.00,WeatherDisplay:10.37,2013-05-17 18:03:00,
2013-05-17 14:08:00,87.5,62.2,30.05,North,360,0.0,0.0,43,0.00,CLR,,0.00,WeatherDisplay:10.37,2013-05-17 18:08:00,
2013-05-17 14:13:00,87.4,62.8,30.04,South,187,1.1,1.1,44,0.00,CLR,,0.00,WeatherDisplay:10.37,2013-05-17 18:13:00,
2013-05-17 14:18:00,87.5,63.5,30.04,ESE,113,0.0,0.0,45,0.00,CLR,,0.00,WeatherDisplay:10.37,2013-05-17 18:18:00,
2013-05-17 14:23:00,88.0,62.0,30.04,SE,141,2.3,2.3,42,0.00,CLR,,0.00,WeatherDisplay:10.37,2013-05-17 18:23:00,
2013-05-17 14:28:00,88.2,62.2,30.04,ESE,111,1.1,1.1,42,0.00,CLR,,0.00,WeatherDisplay:10.37,2013-05-17 18:28:00,
2013-05-17 14:33:00,88.8,64.1,30.04,West,270,0.0,0.0,44,0.00,CLR,,0.00,WeatherDisplay:10.37,2013-05-17 18:33:00,
2013-05-17 14:38:00,89.7,63.6,30.04,East,98,2.3,2.3,42,0.00,CLR,,0.00,WeatherDisplay:10.37,2013-05-17 18:38:00,
2013-05-17 14:43:00,90.1,63.9,30.04,WSW,248,2.3,2.3,42,0.00,CLR,,0.00,WeatherDisplay:10.37,2013-05-17 18:43:00,
2013-05-17 14:48:00,90.6,63.7,30.04,SE,124,2.3,0.0,41,0.00,CLR,,0.00,WeatherDisplay:10.37,2013-05-17 18:48:00,
2013-05-17 14:53:00,90.6,61.5,30.04,ESE,113,2.3,2.3,38,0.00,CLR,,0.00,WeatherDisplay:10.37,2013-05-17 18:53:00,
2013-05-17 14:58:00,90.6,62.3,30.04,West,274,1.1,0.0,39,0.00,CLR,,0.00,WeatherDisplay:10.37,2013-05-17 18:58:00,
2013-05-17 15:03:00,90.8,61.7,30.03,North,358,1.1,1.1,38,0.00,CLR,,0.00,WeatherDisplay:10.37,2013-05-17 19:03:00,
2013-05-17 15:08:00,90.9,61.0,30.03,NNE,21,2.3,2.3,37,0.00,CLR,,0.00,WeatherDisplay:10.37,2013-05-17 19:08:00,
2013-05-17 15:13:00,90.5,62.2,30.03,ESE,106,2.0,2.0,39,0.00,CLR,,0.00,WeatherDisplay:10.37,2013-05-17 19:13:00,
2013-05-17 15:18:00,90.2,62.6,30.03,SSW,211,3.5,3.5,40,0.00,CLR,,0.00,WeatherDisplay:10.37,2013-05-17 19:18:00,
2013-05-17 15:23:00,89.8,63.0,30.03,SE,131,2.3,2.3,41,0.00,CLR,,0.00,WeatherDisplay:10.37,2013-05-17 19:23:00,
2013-05-17 15:28:00,89.5,62.7,30.03,South,184,1.1,1.1,41,0.00,CLR,,0.00,WeatherDisplay:10.37,2013-05-17 19:28:00,
2013-05-17 15:33:00,89.8,62.3,30.03,ESE,113,2.3,2.3,40,0.00,CLR,,0.00,WeatherDisplay:10.37,2013-05-17 19:33:00,
2013-05-17 15:38:00,90.0,61.7,30.03,North,358,2.3,2.3,39,0.00,CLR,,0.00,WeatherDisplay:10.37,2013-05-17 19:38:00,
2013-05-17 15:43:00,90.1,64.6,30.03,South,184,0.0,0.0,43,0.00,CLR,,0.00,WeatherDisplay:10.37,2013-05-17 19:43:00,
2013-05-17 15:49:00,90.0,63.1,30.02,ESE,123,2.3,2.3,41,0.00,CLR,,0.00,WeatherDisplay:10.37,2013-05-17 19:49:00,
2013-05-17 15:54:00,89.7,63.6,30.02,ESE,114,2.3,2.3,42,0.00,CLR,,0.00,WeatherDisplay:10.37,2013-05-17 19:54:00,
2013-05-17 15:59:00,89.5,63.4,30.02,ESE,105,3.5,3.5,42,0.00,CLR,,0.00,WeatherDisplay:10.37,2013-05-17 19:59:00,
2013-05-17 16:04:00,89.5,62.7,30.02,SSE,158,1.1,1.1,41,0.00,CLR,,0.00,WeatherDisplay:10.37,2013-05-17 20:04:00,
2013-05-17 16:09:00,90.4,62.1,30.02,South,176,3.5,3.5,39,0.00,CLR,,0.00,WeatherDisplay:10.37,2013-05-17 20:09:00,
2013-05-17 16:14:00,91.0,61.9,30.02,WSW,240,3.5,3.5,38,0.00,CLR,,0.00,WeatherDisplay:10.37,2013-05-17 20:14:00,
2013-05-17 16:19:00,91.2,62.8,30.02,ESE,113,2.3,2.3,39,0.00,CLR,,0.00,WeatherDisplay:10.37,2013-05-17 20:19:00,
2013-05-17 16:24:00,92.3,63.0,30.01,SSE,150,2.3,2.3,38,0.00,CLR,,0.00,WeatherDisplay:10.37,2013-05-17 20:24:00,
2013-05-17 16:29:00,92.2,60.6,30.01,SSW,204,1.1,1.1,35,0.00,CLR,,0.00,WeatherDisplay:10.37,2013-05-17 20:29:00,
2013-05-17 16:34:00,92.4,61.6,30.01,WSW,240,2.3,2.3,36,0.00,CLR,,0.00,WeatherDisplay:10.37,2013-05-17 20:34:00,
2013-05-17 16:39:00,92.7,62.6,30.01,West,262,0.0,0.0,37,0.00,CLR,,0.00,WeatherDisplay:10.37,2013-05-17 20:39:00,
2013-05-17 16:44:00,92.8,60.3,30.01,ENE,62,1.1,1.1,34,0.00,CLR,,0.00,WeatherDisplay:10.37,2013-05-17 20:44:00,
2013-05-17 16:49:00,93.1,60.6,30.01,SE,127,1.1,0.0,34,0.00,CLR,,0.00,WeatherDisplay:10.37,2013-05-17 20:49:00,
2013-05-17 16:54:00,93.1,60.6,30.01,SE,140,0.0,0.0,34,0.00,CLR,,0.00,WeatherDisplay:10.37,2013-05-17 20:54:00,
2013-05-17 16:59:00,93.4,61.7,30.01,SSW,210,0.0,0.0,35,0.00,CLR,,0.00,WeatherDisplay:10.37,2013-05-17 20:59:00,
2013-05-17 17:04:00,93.1,61.4,30.01,SW,231,3.5,3.5,35,0.00,CLR,,0.00,WeatherDisplay:10.37,2013-05-17 21:04:00,
2013-05-17 17:09:00,92.6,62.5,30.01,SSW,198,0.0,0.0,37,0.00,CLR,,0.00,WeatherDisplay:10.37,2013-05-17 21:09:00,
2013-05-17 17:14:00,92.6,61.0,30.01,SSE,155,3.5,3.5,35,0.00,CLR,,0.00,WeatherDisplay:10.37,2013-05-17 21:14:00,
2013-05-17 17:19:00,92.2,61.4,30.01,SSW,209,2.3,2.3,36,0.00,CLR,,0.00,WeatherDisplay:10.37,2013-05-17 21:19:00,
2013-05-17 17:24:00,92.2,62.2,30.01,East,85,1.1,1.1,37,0.00,CLR,,0.00,WeatherDisplay:10.37,2013-05-17 21:24:00,
2013-05-17 17:29:00,91.8,61.0,30.01,SSE,155,2.3,2.3,36,0.00,CLR,,0.00,WeatherDisplay:10.37,2013-05-17 21:29:00,
2013-05-17 17:34:00,91.3,61.4,30.01,South,175,3.5,3.5,37,0.00,CLR,,0.00,WeatherDisplay:10.37,2013-05-17 21:34:00,
2013-05-17 17:39:00,90.9,61.0,30.01,SE,132,1.1,1.1,37,0.00,CLR,,0.00,WeatherDisplay:10.37,2013-05-17 21:39:00,
2013-05-17 17:44:00,90.9,61.0,30.01,ESE,114,1.1,1.1,37,0.00,CLR,,0.00,WeatherDisplay:10.37,2013-05-17 21:44:00,
2013-05-17 17:49:00,91.4,60.7,30.01,SE,141,0.0,0.0,36,0.00,CLR,,0.00,WeatherDisplay:10.37,2013-05-17 21:49:00,
2013-05-17 17:54:00,91.6,61.6,30.01,ESE,112,1.1,1.1,37,0.00,CLR,,0.00,WeatherDisplay:10.37,2013-05-17 21:54:00,
2013-05-17 17:59:00,91.2,62.8,30.01,ESE,112,1.0,1.0,39,0.00,CLR,,0.00,WeatherDisplay:10.37,2013-05-17 21:59:00,
2013-05-17 18:04:00,90.5,62.2,30.01,WSW,250,0.0,0.0,39,0.00,CLR,,0.00,WeatherDisplay:10.37,2013-05-17 22:04:00,
2013-05-17 18:09:00,89.9,60.9,30.01,SE,127,2.3,2.3,38,0.00,CLR,,0.00,WeatherDisplay:10.37,2013-05-17 22:09:00,
2013-05-17 18:14:00,89.3,62.5,30.01,SW,222,0.0,0.0,41,0.00,CLR,,0.00,WeatherDisplay:10.37,2013-05-17 22:14:00,
2013-05-17 18:19:00,88.6,61.2,30.01,NW,305,0.0,0.0,40,0.00,CLR,,0.00,WeatherDisplay:10.37,2013-05-17 22:19:00,
2013-05-17 18:24:00,88.1,61.4,30.01,SSW,196,3.5,3.5,41,0.00,CLR,,0.00,WeatherDisplay:10.37,2013-05-17 22:24:00,
2013-05-17 18:29:00,87.5,62.2,30.01,WSW,257,1.1,1.1,43,0.00,CLR,,0.00,WeatherDisplay:10.37,2013-05-17 22:29:00,
2013-05-17 18:34:00,87.3,61.4,30.00,WSW,256,0.0,0.0,42,0.00,CLR,,0.00,WeatherDisplay:10.37,2013-05-17 22:34:00,
2013-05-17 18:39:00,87.2,62.0,30.00,WSW,256,0.0,0.0,43,0.00,CLR,,0.00,WeatherDisplay:10.37,2013-05-17 22:39:00,
2013-05-17 18:44:00,86.9,63.0,30.01,WSW,256,0.0,0.0,45,0.00,CLR,,0.00,WeatherDisplay:10.37,2013-05-17 22:44:00,
2013-05-17 18:49:00,86.8,63.5,30.01,WSW,256,0.0,0.0,46,0.00,CLR,,0.00,WeatherDisplay:10.37,2013-05-17 22:49:00,
2013-05-17 18:54:00,86.5,63.3,30.01,WSW,256,0.0,0.0,46,0.00,CLR,,0.00,WeatherDisplay:10.37,2013-05-17 22:54:00,
2013-05-17 18:59:00,85.9,63.3,30.01,WSW,256,0.0,0.0,47,0.00,CLR,,0.00,WeatherDisplay:10.37,2013-05-17 22:59:00,
2013-05-17 19:04:00,85.2,64.5,30.01,WSW,256,0.0,0.0,50,0.00,CLR,,0.00,WeatherDisplay:10.37,2013-05-17 23:04:00,
2013-05-17 19:09:00,84.5,63.8,30.01,WSW,256,0.0,0.0,50,0.00,CLR,,0.00,WeatherDisplay:10.37,2013-05-17 23:09:00,
2013-05-17 19:14:00,83.9,63.8,30.01,WSW,256,0.0,0.0,51,0.00,CLR,,0.00,WeatherDisplay:10.37,2013-05-17 23:14:00,
2013-05-17 19:19:00,83.2,64.3,30.01,WSW,256,0.0,0.0,53,0.00,CLR,,0.00,WeatherDisplay:10.37,2013-05-17 23:19:00,
2013-05-17 19:24:00,82.6,63.7,30.01,WSW,256,0.0,0.0,53,0.00,CLR,,0.00,WeatherDisplay:10.37,2013-05-17 23:24:00,
2013-05-17 19:29:00,82.1,64.3,30.01,WSW,256,0.0,0.0,55,0.00,CLR,,0.00,WeatherDisplay:10.37,2013-05-17 23:29:00,
2013-05-17 19:34:00,81.4,64.2,30.01,WSW,256,0.0,0.0,56,0.00,CLR,,0.00,WeatherDisplay:10.37,2013-05-17 23:34:00,
2013-05-17 19:39:00,80.8,64.6,30.01,WSW,256,0.0,0.0,58,0.00,CLR,,0.00,WeatherDisplay:10.37,2013-05-17 23:39:00,
2013-05-17 19:44:00,80.3,64.2,30.01,WSW,256,0.0,0.0,58,0.00,CLR,,0.00,WeatherDisplay:10.37,2013-05-17 23:44:00,
2013-05-17 19:49:00,79.8,64.2,30.01,WSW,256,0.0,0.0,59,0.00,CLR,,0.00,WeatherDisplay:10.37,2013-05-17 23:49:00,
2013-05-17 19:54:00,79.4,64.8,30.01,WSW,256,0.0,0.0,61,0.00,CLR,,0.00,WeatherDisplay:10.37,2013-05-17 23:54:00,
2013-05-17 19:59:00,79.0,64.9,30.01,WSW,256,0.0,0.0,62,0.00,CLR,,0.00,WeatherDisplay:10.37,2013-05-17 23:59:00,
2013-05-17 20:04:00,78.6,64.9,30.02,WSW,256,0.0,0.0,63,0.00,CLR,,0.00,WeatherDisplay:10.37,2013-05-18 00:04:00,
2013-05-17 20:09:00,78.1,64.5,30.02,WSW,257,0.0,0.0,63,0.00,CLR,,0.00,WeatherDisplay:10.37,2013-05-18 00:09:00,
2013-05-17 20:14:00,77.7,65.0,30.02,WSW,256,0.0,0.0,65,0.00,CLR,,0.00,WeatherDisplay:10.37,2013-05-18 00:14:00,
2013-05-17 20:19:00,77.4,65.1,30.02,WSW,256,0.0,0.0,66,0.00,CLR,,0.00,WeatherDisplay:10.37,2013-05-18 00:19:00,
2013-05-17 20:24:00,77.0,64.8,30.02,WSW,256,0.0,0.0,66,0.00,CLR,,0.00,WeatherDisplay:10.37,2013-05-18 00:24:00,
2013-05-17 20:29:00,76.7,65.3,30.02,WSW,256,0.0,0.0,68,0.00,CLR,,0.00,WeatherDisplay:10.37,2013-05-18 00:29:00,
2013-05-17 20:34:00,76.4,65.5,30.02,WSW,256,0.0,0.0,69,0.00,CLR,,0.00,WeatherDisplay:10.37,2013-05-18 00:34:00,
2013-05-17 20:39:00,76.2,65.3,30.02,WSW,256,0.0,0.0,69,0.00,CLR,,0.00,WeatherDisplay:10.37,2013-05-18 00:39:00,
2013-05-17 20:44:00,75.9,65.4,30.02,WSW,256,0.0,0.0,70,0.00,CLR,,0.00,WeatherDisplay:10.37,2013-05-18 00:44:00,
2013-05-17 20:49:00,75.7,65.2,30.02,WSW,256,0.0,0.0,70,0.00,CLR,,0.00,WeatherDisplay:10.37,2013-05-18 00:49:00,
2013-05-17 20:54:00,75.5,65.4,30.02,WSW,256,0.0,0.0,71,0.00,CLR,,0.00,WeatherDisplay:10.37,2013-05-18 00:54:00,
2013-05-17 20:59:00,75.3,65.2,30.03,WSW,256,0.0,0.0,71,0.00,CLR,,0.00,WeatherDisplay:10.37,2013-05-18 00:59:00,
2013-05-17 21:04:00,75.0,65.4,30.02,WSW,256,0.0,0.0,72,0.00,CLR,,0.00,WeatherDisplay:10.37,2013-05-18 01:04:00,
2013-05-17 21:10:00,74.8,65.6,30.03,WSW,256,0.0,0.0,73,0.00,CLR,,0.00,WeatherDisplay:10.37,2013-05-18 01:10:00,
2013-05-17 21:15:00,74.5,65.3,30.03,WSW,256,0.0,0.0,73,0.00,CLR,,0.00,WeatherDisplay:10.37,2013-05-18 01:15:00,
2013-05-17 21:20:00,74.3,65.5,30.03,WSW,257,0.0,0.0,74,0.00,CLR,,0.00,WeatherDisplay:10.37,2013-05-18 01:20:00,
2013-05-17 21:25:00,74.1,65.3,30.03,WSW,257,0.0,0.0,74,0.00,CLR,,0.00,WeatherDisplay:10.37,2013-05-18 01:25:00,
2013-05-17 21:30:00,73.9,65.1,30.03,WSW,257,0.0,0.0,74,0.00,CLR,,0.00,WeatherDisplay:10.37,2013-05-18 01:30:00,
2013-05-17 21:35:00,73.7,64.9,30.03,WSW,257,0.0,0.0,74,0.00,CLR,,0.00,WeatherDisplay:10.37,2013-05-18 01:35:00,
2013-05-17 21:40:00,73.6,64.8,30.03,WSW,257,0.0,0.0,74,0.00,CLR,,0.00,WeatherDisplay:10.37,2013-05-18 01:40:00,
2013-05-17 21:45:00,73.5,65.5,30.03,WSW,257,0.0,0.0,76,0.00,CLR,,0.00,WeatherDisplay:10.37,2013-05-18 01:45:00,
2013-05-17 21:50:00,73.5,65.5,30.04,WSW,257,0.0,0.0,76,0.00,CLR,,0.00,WeatherDisplay:10.37,2013-05-18 01:50:00,
2013-05-17 21:55:00,73.6,65.6,30.04,WSW,257,0.0,0.0,76,0.00,CLR,,0.00,WeatherDisplay:10.37,2013-05-18 01:55:00,
2013-05-17 22:00:00,73.5,65.5,30.04,WSW,257,0.0,0.0,76,0.00,CLR,,0.00,WeatherDisplay:10.37,2013-05-18 02:00:00,
2013-05-17 22:05:00,73.3,65.7,30.04,WSW,257,0.0,0.0,77,0.00,CLR,,0.00,WeatherDisplay:10.37,2013-05-18 02:05:00,
2013-05-17 22:10:00,73.3,66.0,30.04,WSW,257,0.0,0.0,78,0.00,CLR,,0.00,WeatherDisplay:10.37,2013-05-18 02:10:00,
2013-05-17 22:15:00,73.1,65.8,30.04,WSW,257,0.0,0.0,78,0.00,CLR,,0.00,WeatherDisplay:10.37,2013-05-18 02:15:00,
2013-05-17 22:20:00,73.0,65.7,30.05,WSW,257,0.0,0.0,78,0.00,CLR,,0.00,WeatherDisplay:10.37,2013-05-18 02:20:00,
2013-05-17 22:25:00,72.8,65.5,30.05,WSW,257,0.0,0.0,78,0.00,CLR,,0.00,WeatherDisplay:10.37,2013-05-18 02:25:00,
2013-05-17 22:30:00,72.7,65.8,30.05,WSW,257,0.0,0.0,79,0.00,CLR,,0.00,WeatherDisplay:10.37,2013-05-18 02:30:00,
2013-05-17 22:35:00,72.7,66.2,30.05,WSW,257,0.0,0.0,80,0.00,CLR,,0.00,WeatherDisplay:10.37,2013-05-18 02:35:00,
2013-05-17 22:40:00,72.8,66.3,30.05,North,356,1.1,0.0,80,0.00,CLR,,0.00,WeatherDisplay:10.37,2013-05-18 02:40:00,
2013-05-17 22:45:00,72.9,65.6,30.05,SSE,149,2.0,2.0,78,0.00,CLR,,0.00,WeatherDisplay:10.37,2013-05-18 02:45:00,
2013-05-17 22:50:00,73.4,65.7,30.05,NE,44,1.1,1.1,77,0.00,CLR,,0.00,WeatherDisplay:10.37,2013-05-18 02:50:00,
2013-05-17 22:55:00,73.7,66.0,30.06,NNW,344,1.1,0.0,77,0.00,CLR,,0.00,WeatherDisplay:10.37,2013-05-18 02:55:00,
2013-05-17 23:00:00,73.9,66.2,30.06,NNE,18,1.1,1.1,77,0.00,CLR,,0.00,WeatherDisplay:10.37,2013-05-18 03:00:00,
2013-05-17 23:05:00,73.8,65.8,30.06,NNE,15,1.1,1.1,76,0.00,CLR,,0.00,WeatherDisplay:10.37,2013-05-18 03:05:00,
2013-05-17 23:10:00,74.0,65.6,30.06,ENE,67,3.5,3.5,75,0.00,CLR,,0.00,WeatherDisplay:10.37,2013-05-18 03:10:00,
2013-05-17 23:15:00,74.2,65.4,30.06,North,354,2.3,2.3,74,0.00,CLR,,0.00,WeatherDisplay:10.37,2013-05-18 03:15:00,
2013-05-17 23:20:00,74.2,65.4,30.06,NNE,12,1.0,1.0,74,0.00,CLR,,0.00,WeatherDisplay:10.37,2013-05-18 03:20:00,
2013-05-17 23:25:00,74.1,65.3,30.06,North,353,1.1,1.1,74,0.00,CLR,,0.00,WeatherDisplay:10.37,2013-05-18 03:25:00,
2013-05-17 23:30:00,73.9,65.5,30.06,North,354,1.1,1.1,75,0.00,CLR,,0.00,WeatherDisplay:10.37,2013-05-18 03:30:00,
2013-05-17 23:35:00,73.7,65.3,30.06,North,354,0.0,0.0,75,0.00,CLR,,0.00,WeatherDisplay:10.37,2013-05-18 03:35:00,
2013-05-17 23:40:00,73.7,65.7,30.06,ESE,122,2.3,2.3,76,0.00,CLR,,0.00,WeatherDisplay:10.37,2013-05-18 03:40:00,
2013-05-17 23:45:00,73.8,65.4,30.06,ESE,117,1.1,1.1,75,0.00,CLR,,0.00,WeatherDisplay:10.37,2013-05-18 03:45:00,
2013-05-17 23:50:00,73.7,65.3,30.06,East,92,0.0,0.0,75,0.00,CLR,,0.00,WeatherDisplay:10.37,2013-05-18 03:50:00,
2013-05-17 23:55:00,73.5,65.1,30.06,East,91,0.0,0.0,75,0.00,CLR,,0.00,WeatherDisplay:10.37,2013-05-18 03:55:00,